Flag for Mexico Weather past 2 weeks in Monterrey, Nuevo León, Mexico

Now
90 °F

Broken clouds.


Feels Like: 90 °F
Forecast: 71 / 96 °F
Wind: 12 mph from Southeast

Location: Monterrey / Gen Maria

Current Time: Jul 30, 2015 at 8:18:59 PM

Latest Report: Jul 30, 2015 at 7:45 PM


Visibility: 8 mi

Pressure: 29.97 "Hg (28.20 "Hg at 545m altitude)

Humidity: 41%

Dew point: 63 °F

Location of MonterreyLocation

Historic Weather in Monterrey — Graph

°F

Monterrey temperature yesterday

Maximum temperature yesterday: 99 °F (at 5:49 PM)
Minimum temperature yesterday: 73 °F (at 5:40 AM)
Average temperature yesterday: 84 °F

Past Weeks' High & Low Weather Summary

 TemperatureHumidityPressure
High99 °F (Jul 25, 4:44 PM)89% (Jul 16, 4:50 AM)30.08 "Hg (Jul 16, 4:50 AM)
Low72 °F (Jul 18, 5:44 AM)21% (Jul 29, 5:49 PM)29.75 "Hg (Jul 26, 6:42 PM)
Average83 °F62%29.91 "Hg
* Reported Jul 15 5:45 PM — Jul 30 5:47 PM, Monterrey, Weather by CustomWeather, © 2015

Note: Actual official high and low records may vary slightly from our data, if they occured in-between our weather recording intervals... More about our weather records

Advertising

Monterrey weather history for previous 24 hours

 ConditionsComfort  
Time TempWeatherWind HumidityBarometerVisibility
5:47 PM
Thu, Jul 30
95 °FBroken clouds.14 mph30%29.97 "Hg10 mi
3:46 PM95 °FScattered clouds.14 mph32%29.99 "Hg10 mi
12:42 PM88 °FSunny.10 mph49%30.03 "Hg8 mi
11:45 AM82 °FSunny.8 mph62%30.08 "Hg6 mi
9:44 AM82 °FPartly sunny.3 mph62%30.02 "Hg6 mi
8:52 AM79 °FSunny.3 mph70%30.07 "Hg6 mi
6:45 AM73 °FPassing clouds.No wind83%29.98 "Hg6 mi
5:48 AM73 °FOvercast.No wind89%30.02 "Hg10 mi
4:44 AM73 °FPassing clouds.No wind83%30.01 "Hg10 mi
3:48 AM75 °FClear.6 mph78%29.95 "Hg15 mi
2:43 AM77 °FClear.7 mph74%30.03 "Hg15 mi
1:50 AM77 °FClear.8 mph79%30.04 "Hg15 mi
12:46 AM79 °FClear.10 mph70%29.99 "Hg15 mi
10:41 PM
Wed, Jul 29
84 °FClear.14 mph48%30.00 "Hg15 mi
9:49 PM88 °FClear.16 mph43%29.93 "Hg15 mi
8:45 PM91 °FSunny.12 mph34%29.93 "Hg10 mi
Weather by CustomWeather, © 2015

See weather overviewHow to use our weather pages